Year,Month,Day,Hour,Minute,Value (Times are PST for temperature in C)
2020,04,13,00,00,6.20
2020,04,13,00,01,6.20
2020,04,13,00,02,6.10
2020,04,13,00,03,6.10
2020,04,13,00,04,6.10
2020,04,13,00,05,6.00
2020,04,13,00,06,6.00
2020,04,13,00,07,5.90
2020,04,13,00,08,5.90
2020,04,13,00,09,5.90
2020,04,13,00,10,5.80
2020,04,13,00,11,5.80
2020,04,13,00,12,5.80
2020,04,13,00,13,5.80
2020,04,13,00,14,5.80
2020,04,13,00,15,5.80
2020,04,13,00,16,5.80
2020,04,13,00,17,5.80
2020,04,13,00,18,5.70
2020,04,13,00,19,5.70
2020,04,13,00,20,5.70
2020,04,13,00,21,5.70
2020,04,13,00,22,5.70
2020,04,13,00,23,5.70
2020,04,13,00,24,5.70
2020,04,13,00,25,5.60
2020,04,13,00,26,5.60
2020,04,13,00,27,5.60
2020,04,13,00,28,5.60
2020,04,13,00,29,5.50
2020,04,13,00,30,5.50
2020,04,13,00,31,5.40
2020,04,13,00,32,5.40
2020,04,13,00,33,5.40
2020,04,13,00,34,5.30
2020,04,13,00,35,5.30
2020,04,13,00,36,5.30
2020,04,13,00,37,5.30
2020,04,13,00,38,5.20
2020,04,13,00,39,5.20
2020,04,13,00,40,5.20
2020,04,13,00,41,5.20
2020,04,13,00,42,5.20
2020,04,13,00,43,5.20
2020,04,13,00,44,5.20
2020,04,13,00,45,5.20
2020,04,13,00,46,5.20
2020,04,13,00,47,5.30
2020,04,13,00,48,5.30
2020,04,13,00,49,5.30
2020,04,13,00,50,5.30
2020,04,13,00,51,5.30
2020,04,13,00,52,5.30
2020,04,13,00,53,5.20
2020,04,13,00,54,5.20
2020,04,13,00,55,5.10
2020,04,13,00,56,5.10
2020,04,13,00,57,5.00
2020,04,13,00,58,5.00
2020,04,13,00,59,4.90
2020,04,13,01,00,4.90
2020,04,13,01,01,4.90
2020,04,13,01,02,4.90
2020,04,13,01,03,4.90
2020,04,13,01,04,4.90
2020,04,13,01,05,4.90
2020,04,13,01,06,4.80
2020,04,13,01,07,4.80
2020,04,13,01,08,4.80
2020,04,13,01,09,4.80
2020,04,13,01,10,4.80
2020,04,13,01,11,4.80
2020,04,13,01,12,4.70
2020,04,13,01,13,4.70
2020,04,13,01,14,4.60
2020,04,13,01,15,4.60
2020,04,13,01,16,4.60
2020,04,13,01,17,4.60
2020,04,13,01,18,4.50
2020,04,13,01,19,4.50
2020,04,13,01,20,4.40
2020,04,13,01,21,4.30
2020,04,13,01,22,4.30
2020,04,13,01,23,4.30
2020,04,13,01,24,4.20
2020,04,13,01,25,4.20
2020,04,13,01,26,4.10
2020,04,13,01,27,4.10
2020,04,13,01,28,4.00
2020,04,13,01,29,4.00
2020,04,13,01,30,3.90
2020,04,13,01,31,3.90
2020,04,13,01,32,3.90
2020,04,13,01,33,3.90
2020,04,13,01,34,3.80
2020,04,13,01,35,3.80
2020,04,13,01,36,3.80
2020,04,13,01,37,3.80
2020,04,13,01,38,3.70
2020,04,13,01,39,3.70
2020,04,13,01,40,3.70
2020,04,13,01,41,3.70
2020,04,13,01,42,3.70
2020,04,13,01,43,3.70
2020,04,13,01,44,3.70
2020,04,13,01,45,3.70
2020,04,13,01,46,3.70
2020,04,13,01,47,3.60
2020,04,13,01,48,3.60
2020,04,13,01,49,3.60
2020,04,13,01,50,3.60
2020,04,13,01,51,3.60
2020,04,13,01,52,3.60
2020,04,13,01,53,3.60
2020,04,13,01,54,3.70
2020,04,13,01,55,3.70
2020,04,13,01,56,3.70
2020,04,13,01,57,3.80
2020,04,13,01,58,3.80
2020,04,13,01,59,3.80
2020,04,13,02,00,3.80
2020,04,13,02,01,3.80
2020,04,13,02,02,3.80
2020,04,13,02,03,3.80
2020,04,13,02,04,3.70
2020,04,13,02,05,3.70
2020,04,13,02,06,3.70
2020,04,13,02,07,3.60
2020,04,13,02,08,3.60
2020,04,13,02,09,3.60
2020,04,13,02,10,3.50
2020,04,13,02,11,3.50
2020,04,13,02,12,3.40
2020,04,13,02,13,3.40
2020,04,13,02,14,3.40
2020,04,13,02,15,3.30
2020,04,13,02,16,3.30
2020,04,13,02,17,3.30
2020,04,13,02,18,3.30
2020,04,13,02,19,3.20
2020,04,13,02,20,3.20
2020,04,13,02,21,3.20
2020,04,13,02,22,3.10
2020,04,13,02,23,3.10
2020,04,13,02,24,3.10
2020,04,13,02,25,3.10
2020,04,13,02,26,3.10
2020,04,13,02,27,3.10
2020,04,13,02,28,3.10
2020,04,13,02,29,3.10
2020,04,13,02,30,3.10
2020,04,13,02,31,3.10
2020,04,13,02,32,3.00
2020,04,13,02,33,3.00
2020,04,13,02,34,3.00
2020,04,13,02,35,3.00
2020,04,13,02,36,3.00
2020,04,13,02,37,3.00
2020,04,13,02,38,2.90
2020,04,13,02,39,2.90
2020,04,13,02,40,2.90
2020,04,13,02,41,2.90
2020,04,13,02,42,2.90
2020,04,13,02,43,2.80
2020,04,13,02,44,2.80
2020,04,13,02,45,2.80
2020,04,13,02,46,2.80
2020,04,13,02,47,2.80
2020,04,13,02,48,2.80
2020,04,13,02,49,2.90
2020,04,13,02,50,2.90
2020,04,13,02,51,2.80
2020,04,13,02,52,2.80
2020,04,13,02,53,2.80
2020,04,13,02,54,2.80
2020,04,13,02,55,2.80
2020,04,13,02,56,2.80
2020,04,13,02,57,2.80
2020,04,13,02,58,2.70
2020,04,13,02,59,2.80
2020,04,13,03,00,2.70
2020,04,13,03,01,2.70
2020,04,13,03,02,2.70
2020,04,13,03,03,2.70
2020,04,13,03,04,2.70
2020,04,13,03,05,2.60
2020,04,13,03,06,2.60
2020,04,13,03,07,2.60
2020,04,13,03,08,2.60
2020,04,13,03,09,2.60
2020,04,13,03,10,2.60
2020,04,13,03,11,2.60
2020,04,13,03,12,2.60
2020,04,13,03,13,2.70
2020,04,13,03,14,2.70
2020,04,13,03,15,2.70
2020,04,13,03,16,2.70
2020,04,13,03,17,2.60
2020,04,13,03,18,2.60
2020,04,13,03,19,2.60
2020,04,13,03,20,2.50
2020,04,13,03,21,2.50
2020,04,13,03,22,2.50
2020,04,13,03,23,2.50
2020,04,13,03,24,2.50
2020,04,13,03,25,2.50
2020,04,13,03,26,2.40
2020,04,13,03,27,2.40
2020,04,13,03,28,2.40
2020,04,13,03,29,2.40
2020,04,13,03,30,2.40
2020,04,13,03,31,2.40
2020,04,13,03,32,2.40
2020,04,13,03,33,2.50
2020,04,13,03,34,2.50
2020,04,13,03,35,2.50
2020,04,13,03,36,2.50
2020,04,13,03,37,2.40
2020,04,13,03,38,2.40
2020,04,13,03,39,2.40
2020,04,13,03,40,2.40
2020,04,13,03,41,2.30
2020,04,13,03,42,2.40
2020,04,13,03,43,2.40
2020,04,13,03,44,2.40
2020,04,13,03,45,2.50
2020,04,13,03,46,2.50
2020,04,13,03,47,2.50
2020,04,13,03,48,2.50
2020,04,13,03,49,2.40
2020,04,13,03,50,2.40
2020,04,13,03,51,2.40
2020,04,13,03,52,2.30
2020,04,13,03,53,2.30
2020,04,13,03,54,2.30
2020,04,13,03,55,2.30
2020,04,13,03,56,2.20
2020,04,13,03,57,2.20
2020,04,13,03,58,2.20
2020,04,13,03,59,2.20
2020,04,13,04,00,2.10
2020,04,13,04,01,2.10
2020,04,13,04,02,2.10
2020,04,13,04,03,2.10
2020,04,13,04,04,2.10
2020,04,13,04,05,2.10
2020,04,13,04,06,2.10
2020,04,13,04,07,2.10
2020,04,13,04,08,2.10
2020,04,13,04,09,2.10
2020,04,13,04,10,2.10
2020,04,13,04,11,2.10
2020,04,13,04,12,2.10
2020,04,13,04,13,2.00
2020,04,13,04,14,2.00
2020,04,13,04,15,2.00
2020,04,13,04,16,2.00
2020,04,13,04,17,2.00
2020,04,13,04,18,2.00
2020,04,13,04,19,2.00
2020,04,13,04,20,2.00
2020,04,13,04,21,1.90
2020,04,13,04,22,1.90
2020,04,13,04,23,1.90
2020,04,13,04,24,1.90
2020,04,13,04,25,1.90
2020,04,13,04,26,1.90
2020,04,13,04,27,1.90
2020,04,13,04,28,1.90
2020,04,13,04,29,1.80
2020,04,13,04,30,1.80
2020,04,13,04,31,1.80
2020,04,13,04,32,1.80
2020,04,13,04,33,1.80
2020,04,13,04,34,1.70
2020,04,13,04,35,1.70
2020,04,13,04,36,1.70
2020,04,13,04,37,1.70
2020,04,13,04,38,1.60
2020,04,13,04,39,1.60
2020,04,13,04,40,1.60
2020,04,13,04,41,1.50
2020,04,13,04,42,1.50
2020,04,13,04,43,1.50
2020,04,13,04,44,1.60
2020,04,13,04,45,1.60
2020,04,13,04,46,1.60
2020,04,13,04,47,1.60
2020,04,13,04,48,1.50
2020,04,13,04,49,1.50
2020,04,13,04,50,1.50
2020,04,13,04,51,1.50
2020,04,13,04,52,1.40
2020,04,13,04,53,1.40
2020,04,13,04,54,1.40
2020,04,13,04,55,1.40
2020,04,13,04,56,1.40
2020,04,13,04,57,1.40
2020,04,13,04,58,1.40
2020,04,13,04,59,1.40
2020,04,13,05,00,1.30
2020,04,13,05,01,1.30
2020,04,13,05,02,1.30
2020,04,13,05,03,1.30
2020,04,13,05,04,1.30
2020,04,13,05,05,1.30
2020,04,13,05,06,1.30
2020,04,13,05,07,1.20
2020,04,13,05,08,1.20
2020,04,13,05,09,1.20
2020,04,13,05,10,1.20
2020,04,13,05,11,1.20
2020,04,13,05,12,1.20
2020,04,13,05,13,1.20
2020,04,13,05,14,1.20
2020,04,13,05,15,1.20
2020,04,13,05,16,1.20
2020,04,13,05,17,1.20
2020,04,13,05,18,1.10
2020,04,13,05,19,1.10
2020,04,13,05,20,1.10
2020,04,13,05,21,1.10
2020,04,13,05,22,1.10
2020,04,13,05,23,1.10
2020,04,13,05,24,1.10
2020,04,13,05,25,1.10
2020,04,13,05,26,1.10
2020,04,13,05,27,1.10
2020,04,13,05,28,1.10
2020,04,13,05,29,1.10
2020,04,13,05,30,1.10
2020,04,13,05,31,1.10
2020,04,13,05,32,1.10
2020,04,13,05,33,1.10
2020,04,13,05,34,1.10
2020,04,13,05,35,1.10
2020,04,13,05,36,1.10
2020,04,13,05,37,1.10
2020,04,13,05,38,1.10
2020,04,13,05,39,1.10
2020,04,13,05,40,1.10
2020,04,13,05,41,1.10
2020,04,13,05,42,1.00
2020,04,13,05,43,1.00
2020,04,13,05,44,1.00
2020,04,13,05,45,1.00
2020,04,13,05,46,0.90
2020,04,13,05,47,0.90
2020,04,13,05,48,0.90
2020,04,13,05,49,0.90
2020,04,13,05,50,0.90
2020,04,13,05,51,0.90
2020,04,13,05,52,0.90
2020,04,13,05,53,0.90
2020,04,13,05,54,0.90
2020,04,13,05,55,0.90
2020,04,13,05,56,0.90
2020,04,13,05,57,0.80
2020,04,13,05,58,0.80
2020,04,13,05,59,0.80
2020,04,13,06,00,0.80
2020,04,13,06,01,0.80
2020,04,13,06,02,0.80
2020,04,13,06,03,0.80
2020,04,13,06,04,0.80
2020,04,13,06,05,0.80
2020,04,13,06,06,0.80
2020,04,13,06,07,0.80
2020,04,13,06,08,0.70
2020,04,13,06,09,0.70
2020,04,13,06,10,0.70
2020,04,13,06,11,0.70
2020,04,13,06,12,0.70
2020,04,13,06,13,0.70
2020,04,13,06,14,0.70
2020,04,13,06,15,0.70
2020,04,13,06,16,0.70
2020,04,13,06,17,0.70
2020,04,13,06,18,0.70
2020,04,13,06,19,0.70
2020,04,13,06,20,0.60
2020,04,13,06,21,0.60
2020,04,13,06,22,0.60
2020,04,13,06,23,0.60
2020,04,13,06,24,0.60
2020,04,13,06,25,0.60
2020,04,13,06,26,0.50
2020,04,13,06,27,0.50
2020,04,13,06,28,0.50
2020,04,13,06,29,0.50
2020,04,13,06,30,0.50
2020,04,13,06,31,0.40
2020,04,13,06,32,0.40
2020,04,13,06,33,0.40
2020,04,13,06,34,0.40
2020,04,13,06,35,0.40
2020,04,13,06,36,0.40
2020,04,13,06,37,0.40
2020,04,13,06,38,0.40
2020,04,13,06,39,0.40
2020,04,13,06,40,0.40
2020,04,13,06,41,0.40
2020,04,13,06,42,0.40
2020,04,13,06,43,0.40
2020,04,13,06,44,0.40
2020,04,13,06,45,0.50
2020,04,13,06,46,0.50
2020,04,13,06,47,0.50
2020,04,13,06,48,0.50
2020,04,13,06,49,0.50
2020,04,13,06,50,0.50
2020,04,13,06,51,0.50
2020,04,13,06,52,0.50
2020,04,13,06,53,0.50
2020,04,13,06,54,0.50
2020,04,13,06,55,0.60
2020,04,13,06,56,0.60
2020,04,13,06,57,0.60
2020,04,13,06,58,0.60
2020,04,13,06,59,0.60
2020,04,13,07,00,0.60
2020,04,13,07,01,0.60
2020,04,13,07,02,0.60
2020,04,13,07,03,0.60
2020,04,13,07,04,0.70
2020,04,13,07,05,0.70
2020,04,13,07,06,0.70
2020,04,13,07,07,0.80
2020,04,13,07,08,0.80
2020,04,13,07,09,0.90
2020,04,13,07,10,0.90
2020,04,13,07,11,0.90
2020,04,13,07,12,1.00
2020,04,13,07,13,1.00
2020,04,13,07,14,1.00
2020,04,13,07,15,1.10
2020,04,13,07,16,1.10
2020,04,13,07,17,1.10
2020,04,13,07,18,1.10
2020,04,13,07,19,1.10
2020,04,13,07,20,1.10
2020,04,13,07,21,1.20
2020,04,13,07,22,1.20
2020,04,13,07,23,1.20
2020,04,13,07,24,1.20
2020,04,13,07,25,1.20
2020,04,13,07,26,1.20
2020,04,13,07,27,1.20
2020,04,13,07,28,1.30
2020,04,13,07,29,1.30
2020,04,13,07,30,1.30
2020,04,13,07,31,1.30
2020,04,13,07,32,1.40
2020,04,13,07,33,1.50
2020,04,13,07,34,1.50
2020,04,13,07,35,1.60
2020,04,13,07,36,1.60
2020,04,13,07,37,1.70
2020,04,13,07,38,1.80
2020,04,13,07,39,1.80
2020,04,13,07,40,1.90
2020,04,13,07,41,2.00
2020,04,13,07,42,2.00
2020,04,13,07,43,2.10
2020,04,13,07,44,2.20
2020,04,13,07,45,2.20
2020,04,13,07,46,2.30
2020,04,13,07,47,2.30
2020,04,13,07,48,2.40
2020,04,13,07,49,2.40
2020,04,13,07,50,2.50
2020,04,13,07,51,2.50
2020,04,13,07,52,2.60
2020,04,13,07,53,2.70
2020,04,13,07,54,2.70
2020,04,13,07,55,2.80
2020,04,13,07,56,2.90
2020,04,13,07,57,3.00
2020,04,13,07,58,3.00
2020,04,13,07,59,3.10
2020,04,13,08,00,3.20
2020,04,13,08,01,3.20
2020,04,13,08,02,3.20
2020,04,13,08,03,3.30
2020,04,13,08,04,3.30
2020,04,13,08,05,3.40
2020,04,13,08,06,3.40
2020,04,13,08,07,3.50
2020,04,13,08,08,3.50
2020,04,13,08,09,3.50
2020,04,13,08,10,3.60
2020,04,13,08,11,3.60
2020,04,13,08,12,3.60
2020,04,13,08,13,3.70
2020,04,13,08,14,3.70
2020,04,13,08,15,3.80
2020,04,13,08,16,3.80
2020,04,13,08,17,3.90
2020,04,13,08,18,3.90
2020,04,13,08,19,4.00
2020,04,13,08,20,4.10
2020,04,13,08,21,4.10
2020,04,13,08,22,4.20
2020,04,13,08,23,4.30
2020,04,13,08,24,4.40
2020,04,13,08,25,4.50
2020,04,13,08,26,4.60
2020,04,13,08,27,4.70
2020,04,13,08,28,4.80
2020,04,13,08,29,4.90
2020,04,13,08,30,5.00
2020,04,13,08,31,5.10
2020,04,13,08,32,5.20
2020,04,13,08,33,5.30
2020,04,13,08,34,5.40
2020,04,13,08,35,5.50
2020,04,13,08,36,5.60
2020,04,13,08,37,5.60
2020,04,13,08,38,5.70
2020,04,13,08,39,5.80
2020,04,13,08,40,5.80
2020,04,13,08,41,5.90
2020,04,13,08,42,6.00
2020,04,13,08,43,6.10
2020,04,13,08,44,6.20
2020,04,13,08,45,6.30
2020,04,13,08,46,6.40
2020,04,13,08,47,6.50
2020,04,13,08,48,6.60
2020,04,13,08,49,6.70
2020,04,13,08,50,6.80
2020,04,13,08,51,6.90
2020,04,13,08,52,7.00
2020,04,13,08,53,7.10
2020,04,13,08,54,7.20
2020,04,13,08,55,7.30
2020,04,13,08,56,7.40
2020,04,13,08,57,7.50
2020,04,13,08,58,7.60
2020,04,13,08,59,7.70
2020,04,13,09,00,7.80
2020,04,13,09,01,7.90
2020,04,13,09,02,8.00
2020,04,13,09,03,8.10
2020,04,13,09,04,8.10
2020,04,13,09,05,8.20
2020,04,13,09,06,8.30
2020,04,13,09,07,8.40
2020,04,13,09,08,8.50
2020,04,13,09,09,8.50
2020,04,13,09,10,8.60
2020,04,13,09,11,8.60
2020,04,13,09,12,8.60
2020,04,13,09,13,8.70
2020,04,13,09,14,8.70
2020,04,13,09,15,8.70
2020,04,13,09,16,8.80
2020,04,13,09,17,8.80
2020,04,13,09,18,8.90
2020,04,13,09,19,9.00
2020,04,13,09,20,9.00
2020,04,13,09,21,9.10
2020,04,13,09,22,9.10
2020,04,13,09,23,9.20
2020,04,13,09,24,9.20
2020,04,13,09,25,9.30
2020,04,13,09,26,9.30
2020,04,13,09,27,9.30
2020,04,13,09,28,9.40
2020,04,13,09,29,9.40
2020,04,13,09,30,9.40
2020,04,13,09,31,9.40
2020,04,13,09,32,9.40
2020,04,13,09,33,9.50
2020,04,13,09,34,9.50
2020,04,13,09,35,9.60
2020,04,13,09,36,9.60
2020,04,13,09,37,9.70
2020,04,13,09,38,9.70
2020,04,13,09,39,9.70
2020,04,13,09,40,9.70
2020,04,13,09,41,9.70
2020,04,13,09,42,9.80
2020,04,13,09,43,9.80
2020,04,13,09,44,9.90
2020,04,13,09,45,9.90
2020,04,13,09,46,9.90
2020,04,13,09,47,9.90
2020,04,13,09,48,10.00
2020,04,13,09,49,10.00
2020,04,13,09,50,10.10
2020,04,13,09,51,10.10
2020,04,13,09,52,10.20
2020,04,13,09,53,10.20
2020,04,13,09,54,10.20
2020,04,13,09,55,10.30
2020,04,13,09,56,10.30
2020,04,13,09,57,10.30
2020,04,13,09,58,10.40
2020,04,13,09,59,10.40
2020,04,13,10,00,10.50
2020,04,13,10,01,10.50
2020,04,13,10,02,10.60
2020,04,13,10,03,10.60
2020,04,13,10,04,10.60
2020,04,13,10,05,10.60
2020,04,13,10,06,10.60
2020,04,13,10,07,10.70
2020,04,13,10,08,10.70
2020,04,13,10,09,10.80
2020,04,13,10,10,10.80
2020,04,13,10,11,10.80
2020,04,13,10,12,10.90
2020,04,13,10,13,10.90
2020,04,13,10,14,11.00
2020,04,13,10,15,11.00
2020,04,13,10,16,11.10
2020,04,13,10,17,11.10
2020,04,13,10,18,11.10
2020,04,13,10,19,11.20
2020,04,13,10,20,11.20
2020,04,13,10,21,11.20
2020,04,13,10,22,11.30
2020,04,13,10,23,11.30
2020,04,13,10,24,11.40
2020,04,13,10,25,11.40
2020,04,13,10,26,11.50
2020,04,13,10,27,11.50
2020,04,13,10,28,11.50
2020,04,13,10,29,11.50
2020,04,13,10,30,11.50
2020,04,13,10,31,11.50
2020,04,13,10,32,11.60
2020,04,13,10,33,11.60
2020,04,13,10,34,11.60
2020,04,13,10,35,11.70
2020,04,13,10,36,11.70
2020,04,13,10,37,11.70
2020,04,13,10,38,11.70
2020,04,13,10,39,11.70
2020,04,13,10,40,11.70
2020,04,13,10,41,11.70
2020,04,13,10,42,11.70
2020,04,13,10,43,11.80
2020,04,13,10,44,11.80
2020,04,13,10,45,11.80
2020,04,13,10,46,11.90
2020,04,13,10,47,11.90
2020,04,13,10,48,12.00
2020,04,13,10,49,12.10
2020,04,13,10,50,12.10
2020,04,13,10,51,12.10
2020,04,13,10,52,12.20
2020,04,13,10,53,12.20
2020,04,13,10,54,12.30
2020,04,13,10,55,12.30
2020,04,13,10,56,12.30
2020,04,13,10,57,12.40
2020,04,13,10,58,12.40
2020,04,13,10,59,12.40
2020,04,13,11,00,12.50
2020,04,13,11,01,12.50
2020,04,13,11,02,12.60
2020,04,13,11,03,12.70
2020,04,13,11,04,12.80
2020,04,13,11,05,12.70
2020,04,13,11,06,12.60
2020,04,13,11,07,12.50
2020,04,13,11,08,12.50
2020,04,13,11,09,12.40
2020,04,13,11,10,12.40
2020,04,13,11,11,12.30
2020,04,13,11,12,12.30
2020,04,13,11,13,12.40
2020,04,13,11,14,12.40
2020,04,13,11,15,12.40
2020,04,13,11,16,12.40
2020,04,13,11,17,12.50
2020,04,13,11,18,12.50
2020,04,13,11,19,12.50
2020,04,13,11,20,12.60
2020,04,13,11,21,12.60
2020,04,13,11,22,12.60
2020,04,13,11,23,12.60
2020,04,13,11,24,12.50
2020,04,13,11,25,12.50
2020,04,13,11,26,12.50
2020,04,13,11,27,12.40
2020,04,13,11,28,12.40
2020,04,13,11,29,12.40
2020,04,13,11,30,12.40
2020,04,13,11,31,12.30
2020,04,13,11,32,12.40
2020,04,13,11,33,12.40
2020,04,13,11,34,12.40
2020,04,13,11,35,12.50
2020,04,13,11,36,12.50
2020,04,13,11,37,12.50
2020,04,13,11,38,12.60
2020,04,13,11,39,12.60
2020,04,13,11,40,12.60
2020,04,13,11,41,12.70
2020,04,13,11,42,12.70
2020,04,13,11,43,12.70
2020,04,13,11,44,12.80
2020,04,13,11,45,12.80
2020,04,13,11,46,12.80
2020,04,13,11,47,12.80
2020,04,13,11,48,12.90
2020,04,13,11,49,12.90
2020,04,13,11,50,12.90
2020,04,13,11,51,12.90
2020,04,13,11,52,13.00
2020,04,13,11,53,13.10
2020,04,13,11,54,13.10
2020,04,13,11,55,13.20
2020,04,13,11,56,13.30
2020,04,13,11,57,13.40
2020,04,13,11,58,13.40
2020,04,13,11,59,13.40
2020,04,13,12,00,13.30
2020,04,13,12,01,13.30
2020,04,13,12,02,13.30
2020,04,13,12,03,13.30
2020,04,13,12,04,13.30
2020,04,13,12,05,13.40
2020,04,13,12,06,13.40
2020,04,13,12,07,13.40
2020,04,13,12,08,13.50
2020,04,13,12,09,13.60
2020,04,13,12,10,13.70
2020,04,13,12,11,13.70
2020,04,13,12,12,13.70
2020,04,13,12,13,13.70
2020,04,13,12,14,13.70
2020,04,13,12,15,13.70
2020,04,13,12,16,13.70
2020,04,13,12,17,13.70
2020,04,13,12,18,13.70
2020,04,13,12,19,13.70
2020,04,13,12,20,13.70
2020,04,13,12,21,13.70
2020,04,13,12,22,13.80
2020,04,13,12,23,13.80
2020,04,13,12,24,13.90
2020,04,13,12,25,13.90
2020,04,13,12,26,14.00
2020,04,13,12,27,14.00
2020,04,13,12,28,14.00
2020,04,13,12,29,14.00
2020,04,13,12,30,14.00
2020,04,13,12,31,14.00
2020,04,13,12,32,14.10
2020,04,13,12,33,14.10
2020,04,13,12,34,14.10
2020,04,13,12,35,14.10
2020,04,13,12,36,14.10
2020,04,13,12,37,14.10
2020,04,13,12,38,14.00
2020,04,13,12,39,14.00
2020,04,13,12,40,14.00
2020,04,13,12,41,14.00
2020,04,13,12,42,14.10
2020,04,13,12,43,14.10
2020,04,13,12,44,14.10
2020,04,13,12,45,14.10
2020,04,13,12,46,14.00
2020,04,13,12,47,14.00
2020,04,13,12,48,14.00
2020,04,13,12,49,14.00
2020,04,13,12,50,14.10
2020,04,13,12,51,14.10
2020,04,13,12,52,14.20
2020,04,13,12,53,14.20
2020,04,13,12,54,14.20
2020,04,13,12,55,14.20
2020,04,13,12,56,14.20
2020,04,13,12,57,14.20
2020,04,13,12,58,14.10
2020,04,13,12,59,14.10
2020,04,13,13,00,14.10
2020,04,13,13,01,14.10
2020,04,13,13,02,14.00
2020,04,13,13,03,14.00
2020,04,13,13,04,14.00
2020,04,13,13,05,13.90
2020,04,13,13,06,13.90
2020,04,13,13,07,13.90
2020,04,13,13,08,13.90
2020,04,13,13,09,13.90
2020,04,13,13,10,13.90
2020,04,13,13,11,14.00
2020,04,13,13,12,14.00
2020,04,13,13,13,14.10
2020,04,13,13,14,14.20
2020,04,13,13,15,14.20
2020,04,13,13,16,14.20
2020,04,13,13,17,14.20
2020,04,13,13,18,14.10
2020,04,13,13,19,14.10
2020,04,13,13,20,14.10
2020,04,13,13,21,14.10
2020,04,13,13,22,14.10
2020,04,13,13,23,14.10
2020,04,13,13,24,14.00
2020,04,13,13,25,14.00
2020,04,13,13,26,14.00
2020,04,13,13,27,14.00
2020,04,13,13,28,14.00
2020,04,13,13,29,14.00
2020,04,13,13,30,14.10
2020,04,13,13,31,14.10
2020,04,13,13,32,14.10
2020,04,13,13,33,14.10
2020,04,13,13,34,14.20
2020,04,13,13,35,14.20
2020,04,13,13,36,14.30
2020,04,13,13,37,14.30
2020,04,13,13,38,14.30
2020,04,13,13,39,14.30
2020,04,13,13,40,14.30
2020,04,13,13,41,14.30
2020,04,13,13,42,14.30
2020,04,13,13,43,14.40
2020,04,13,13,44,14.40
2020,04,13,13,45,14.50
2020,04,13,13,46,14.50
2020,04,13,13,47,14.60
2020,04,13,13,48,14.50
2020,04,13,13,49,14.40
2020,04,13,13,50,14.40
2020,04,13,13,51,14.30
2020,04,13,13,52,14.20
2020,04,13,13,53,14.20
2020,04,13,13,54,14.10
2020,04,13,13,55,14.10
2020,04,13,13,56,14.10
2020,04,13,13,57,14.10
2020,04,13,13,58,14.00
2020,04,13,13,59,13.90
2020,04,13,14,00,13.80
2020,04,13,14,01,13.70
2020,04,13,14,02,13.70
2020,04,13,14,03,13.70
2020,04,13,14,04,13.70
2020,04,13,14,05,13.70
2020,04,13,14,06,13.80
2020,04,13,14,07,13.80
2020,04,13,14,08,13.80
2020,04,13,14,09,13.90
2020,04,13,14,10,14.00
2020,04,13,14,11,14.10
2020,04,13,14,12,14.20
2020,04,13,14,13,14.20
2020,04,13,14,14,14.30
2020,04,13,14,15,14.30
2020,04,13,14,16,14.40
2020,04,13,14,17,14.30
2020,04,13,14,18,14.30
2020,04,13,14,19,14.30
2020,04,13,14,20,14.30
2020,04,13,14,21,14.20
2020,04,13,14,22,14.20
2020,04,13,14,23,14.10
2020,04,13,14,24,14.10
2020,04,13,14,25,14.10
2020,04,13,14,26,14.00
2020,04,13,14,27,14.00
2020,04,13,14,28,14.00
2020,04,13,14,29,14.00
2020,04,13,14,30,14.00
2020,04,13,14,31,14.00
2020,04,13,14,32,14.10
2020,04,13,14,33,14.20
2020,04,13,14,34,14.40
2020,04,13,14,35,14.50
2020,04,13,14,36,14.60
2020,04,13,14,37,14.60
2020,04,13,14,38,14.70
2020,04,13,14,39,14.70
2020,04,13,14,40,14.80
2020,04,13,14,41,14.80
2020,04,13,14,42,14.70
2020,04,13,14,43,14.70
2020,04,13,14,44,14.70
2020,04,13,14,45,14.60
2020,04,13,14,46,14.70
2020,04,13,14,47,14.70
2020,04,13,14,48,14.70
2020,04,13,14,49,14.70
2020,04,13,14,50,14.70
2020,04,13,14,51,14.80
2020,04,13,14,52,14.80
2020,04,13,14,53,14.80
2020,04,13,14,54,14.80
2020,04,13,14,55,14.80
2020,04,13,14,56,14.80
2020,04,13,14,57,14.80
2020,04,13,14,58,14.80
2020,04,13,14,59,14.90
2020,04,13,15,00,14.90
2020,04,13,15,01,15.00
2020,04,13,15,02,15.00
2020,04,13,15,03,15.10
2020,04,13,15,04,15.10
2020,04,13,15,05,15.10
2020,04,13,15,06,15.10
2020,04,13,15,07,15.10
2020,04,13,15,08,15.20
2020,04,13,15,09,15.20
2020,04,13,15,10,15.20
2020,04,13,15,11,15.20
2020,04,13,15,12,15.20
2020,04,13,15,13,15.20
2020,04,13,15,14,15.20
2020,04,13,15,15,15.10
2020,04,13,15,16,15.10
2020,04,13,15,17,15.10
2020,04,13,15,18,15.10
2020,04,13,15,19,15.10
2020,04,13,15,20,15.20
2020,04,13,15,21,15.20
2020,04,13,15,22,15.20
2020,04,13,15,23,15.20
2020,04,13,15,24,15.10
2020,04,13,15,25,15.10
2020,04,13,15,26,15.10
2020,04,13,15,27,15.00
2020,04,13,15,28,15.00
2020,04,13,15,29,15.00
2020,04,13,15,30,14.90
2020,04,13,15,31,14.90
2020,04,13,15,32,14.90
2020,04,13,15,33,14.90
2020,04,13,15,34,14.90
2020,04,13,15,35,15.00
2020,04,13,15,36,15.00
2020,04,13,15,37,15.00
2020,04,13,15,38,15.00
2020,04,13,15,39,15.10
2020,04,13,15,40,15.10
2020,04,13,15,41,15.20
2020,04,13,15,42,15.30
2020,04,13,15,43,15.30
2020,04,13,15,44,15.30
2020,04,13,15,45,15.40
2020,04,13,15,46,15.40
2020,04,13,15,47,15.50
2020,04,13,15,48,15.50
2020,04,13,15,49,15.60
2020,04,13,15,50,15.60
2020,04,13,15,51,15.70
2020,04,13,15,52,15.80
2020,04,13,15,53,15.90
2020,04,13,15,54,16.00
2020,04,13,15,55,16.00
2020,04,13,15,56,16.10
2020,04,13,15,57,16.20
2020,04,13,15,58,16.20
2020,04,13,15,59,16.20
2020,04,13,16,00,16.10
2020,04,13,16,01,16.10
2020,04,13,16,02,16.10
2020,04,13,16,03,16.10
2020,04,13,16,04,16.10
2020,04,13,16,05,16.10
2020,04,13,16,06,16.10
2020,04,13,16,07,16.10
2020,04,13,16,08,16.00
2020,04,13,16,09,16.00
2020,04,13,16,10,16.00
2020,04,13,16,11,15.90
2020,04,13,16,12,15.90
2020,04,13,16,13,15.90
2020,04,13,16,14,15.90
2020,04,13,16,15,15.80
2020,04,13,16,16,15.80
2020,04,13,16,17,15.70
2020,04,13,16,18,15.70
2020,04,13,16,19,15.70
2020,04,13,16,20,15.70
2020,04,13,16,21,15.70
2020,04,13,16,22,15.70
2020,04,13,16,23,15.80
2020,04,13,16,24,15.80
2020,04,13,16,25,15.90
2020,04,13,16,26,15.90
2020,04,13,16,27,15.90
2020,04,13,16,28,15.80
2020,04,13,16,29,15.80
2020,04,13,16,30,15.80
2020,04,13,16,31,15.80
2020,04,13,16,32,15.90
2020,04,13,16,33,15.90
2020,04,13,16,34,15.90
2020,04,13,16,35,15.90
2020,04,13,16,36,15.90
2020,04,13,16,37,15.90
2020,04,13,16,38,15.90
2020,04,13,16,39,15.90
2020,04,13,16,40,15.90
2020,04,13,16,41,15.90
2020,04,13,16,42,15.80
2020,04,13,16,43,15.80
2020,04,13,16,44,15.80
2020,04,13,16,45,15.70
2020,04,13,16,46,15.70
2020,04,13,16,47,15.70
2020,04,13,16,48,15.70
2020,04,13,16,49,15.70
2020,04,13,16,50,15.70
2020,04,13,16,51,15.70
2020,04,13,16,52,15.70
2020,04,13,16,53,15.70
2020,04,13,16,54,15.70
2020,04,13,16,55,15.70
2020,04,13,16,56,15.70
2020,04,13,16,57,15.60
2020,04,13,16,58,15.60
2020,04,13,16,59,15.50
2020,04,13,17,00,15.50
2020,04,13,17,01,15.50
2020,04,13,17,02,15.40
2020,04,13,17,03,15.40
2020,04,13,17,04,15.40
2020,04,13,17,05,15.40
2020,04,13,17,06,15.40
2020,04,13,17,07,15.40
2020,04,13,17,08,15.40
2020,04,13,17,09,15.40
2020,04,13,17,10,15.40
2020,04,13,17,11,15.40
2020,04,13,17,12,15.30
2020,04,13,17,13,15.30
2020,04,13,17,14,15.30
2020,04,13,17,15,15.30
2020,04,13,17,16,15.30
2020,04,13,17,17,15.30
2020,04,13,17,18,15.20
2020,04,13,17,19,15.20
2020,04,13,17,20,15.20
2020,04,13,17,21,15.20
2020,04,13,17,22,15.10
2020,04,13,17,23,15.10
2020,04,13,17,24,15.10
2020,04,13,17,25,15.00
2020,04,13,17,26,15.00
2020,04,13,17,27,14.90
2020,04,13,17,28,14.90
2020,04,13,17,29,14.80
2020,04,13,17,30,14.80
2020,04,13,17,31,14.70
2020,04,13,17,32,14.60
2020,04,13,17,33,14.60
2020,04,13,17,34,14.60
2020,04,13,17,35,14.50
2020,04,13,17,36,14.50
2020,04,13,17,37,14.40
2020,04,13,17,38,14.40
2020,04,13,17,39,14.40
2020,04,13,17,40,14.40
2020,04,13,17,41,14.30
2020,04,13,17,42,14.30
2020,04,13,17,43,14.30
2020,04,13,17,44,14.30
2020,04,13,17,45,14.20